| time (UTC) | temp F | wind direction | speed knots | gust knots | rain 1hr in | rain 24hr in | rain mn in | humidity % | barometer mb |
| 20260510224936 | 61 | 254 | 0.0 | 0.0 | 0.00 | 0.00 | 0.00 | 57 | 976.1 |
| 20260510224436 | 62 | 257 | 0.0 | 0.0 | 0.00 | 0.00 | 0.00 | 57 | 976.2 |
| 20260510223936 | 62 | 257 | 0.0 | 0.9 | 0.00 | 0.00 | 0.00 | 57 | 976.1 |
| 20260510223434 | 61 | 257 | 0.0 | 0.9 | 0.00 | 0.00 | 0.00 | 59 | 976.2 |
| 20260510222945 | 61 | 228 | 0.0 | 0.9 | 0.00 | 0.00 | 0.00 | 57 | 976.2 |
| 20260510221941 | 61 | 143 | 0.0 | 0.9 | 0.00 | 0.00 | 0.00 | 59 | 976.1 |
| 20260510221428 | 61 | 115 | 0.0 | 0.9 | 0.00 | 0.00 | 0.00 | 58 | 976.1 |
| 20260510220928 | 61 | 115 | 0.0 | 0.9 | 0.00 | 0.00 | 0.00 | 57 | 976.0 |
| 20260510220428 | 62 | 237 | 0.0 | 1.7 | 0.00 | 0.00 | 0.00 | 60 | 976.0 |
| 20260510215426 | 62 | 66 | 0.0 | 1.7 | 0.00 | 0.00 | 0.00 | 58 | 975.9 |
| 20260510214924 | 62 | 77 | 0.0 | 0.0 | 0.00 | 0.00 | 0.00 | 57 | 975.9 |
| 20260510213922 | 63 | 49 | 0.0 | 0.9 | 0.00 | 0.00 | 0.00 | 58 | 975.9 |
| 20260510213418 | 63 | 43 | 0.0 | 0.9 | 0.00 | 0.00 | 0.00 | 58 | 975.8 |
| 20260510212917 | 63 | 315 | 0.0 | 0.9 | 0.00 | 0.00 | 0.00 | 56 | 975.8 |
| 20260510212418 | 63 | 48 | 0.0 | 0.0 | 0.00 | 0.00 | 0.00 | 58 | 975.8 |
| 20260510211917 | 63 | 45 | 0.0 | 0.0 | 0.00 | 0.00 | 0.00 | 58 | 975.7 |
| 20260510211417 | 63 | 42 | 0.0 | 0.9 | 0.00 | 0.00 | 0.00 | 57 | 975.6 |
| 20260510210931 | 63 | 131 | 0.0 | 0.9 | 0.00 | 0.00 | 0.00 | 59 | 975.6 |
| 20260510210417 | 63 | 146 | 0.0 | 0.0 | 0.00 | 0.00 | 0.00 | 60 | 975.5 |
| 20260510205418 | 63 | 232 | 0.0 | 0.9 | 0.00 | 0.00 | 0.00 | 59 | 975.4 |
| 20260510204914 | 63 | 193 | 0.0 | 0.9 | 0.00 | 0.00 | 0.00 | 59 | 975.4 |
| 20260510204414 | 63 | 171 | 0.0 | 0.9 | 0.00 | 0.00 | 0.00 | 61 | 975.4 |
| 20260510203913 | 63 | 237 | 0.0 | 0.0 | 0.00 | 0.00 | 0.00 | 58 | 975.5 |
| 20260510202913 | 64 | 159 | 0.0 | 0.9 | 0.00 | 0.00 | 0.00 | 60 | 975.7 |
| 20260510201913 | 65 | 196 | 0.0 | 0.9 | 0.00 | 0.00 | 0.00 | 58 | 975.4 |
| 20260510201427 | 65 | 187 | 0.0 | 0.9 | 0.00 | 0.00 | 0.00 | 56 | 975.3 |
| 20260510200914 | 66 | 229 | 0.0 | 0.0 | 0.00 | 0.01 | 0.00 | 55 | 975.1 |
| 20260510200408 | 66 | 297 | 0.0 | 0.9 | 0.00 | 0.01 | 0.00 | 57 | 975.1 |
| 20260510195400 | 67 | 302 | 0.0 | 0.0 | 0.00 | 0.03 | 0.00 | 60 | 975.0 |
| 20260510194858 | 67 | 272 | 0.0 | 2.6 | 0.00 | 0.03 | 0.00 | 59 | 974.9 |
| 20260510194358 | 67 | 78 | 0.0 | 2.6 | 0.00 | 0.04 | 0.00 | 60 | 975.0 |
| 20260510193858 | 67 | 120 | 0.0 | 0.9 | 0.00 | 0.05 | 0.00 | 61 | 975.0 |
| 20260510193358 | 66 | 238 | 0.0 | 0.0 | 0.00 | 0.06 | 0.00 | 63 | 975.1 |
| 20260510192356 | 66 | 171 | 0.0 | 0.9 | 0.00 | 0.08 | 0.00 | 63 | 975.1 |
| 20260510191857 | 66 | 97 | 0.0 | 0.9 | 0.00 | 0.10 | 0.00 | 63 | 975.3 |
| 20260510191356 | 67 | 78 | 0.0 | 1.7 | 0.00 | 0.11 | 0.00 | 61 | 975.3 |
| 20260510190853 | 67 | 74 | 0.0 | 1.7 | 0.00 | 0.12 | 0.00 | 64 | 975.3 |
| 20260510190351 | 67 | 253 | 0.0 | 0.0 | 0.00 | 0.14 | 0.00 | 64 | 975.3 |
| 20260510185849 | 66 | 267 | 0.0 | 0.9 | 0.00 | 0.15 | 0.00 | 66 | 975.2 |
| 20260510184850 | 66 | 262 | 0.0 | 1.7 | 0.00 | 0.17 | 0.00 | 67 | 975.3 |
| 20260510184348 | 66 | 334 | 0.0 | 0.0 | 0.00 | 0.17 | 0.00 | 65 | 975.3 |
| 20260510183847 | 66 | 78 | 0.0 | 0.0 | 0.00 | 0.17 | 0.00 | 66 | 975.4 |
| 20260510183340 | 66 | 82 | 0.0 | 1.7 | 0.00 | 0.18 | 0.00 | 67 | 975.4 |
| 20260510182833 | 66 | 113 | 0.0 | 1.7 | 0.00 | 0.18 | 0.00 | 66 | 975.4 |
| 20260510182326 | 67 | 262 | 0.0 | 0.0 | 0.00 | 0.18 | 0.00 | 63 | 975.4 |
| 20260510181821 | 67 | 159 | 0.0 | 2.6 | 0.00 | 0.18 | 0.00 | 67 | 975.4 |
| 20260510181315 | 67 | 78 | 0.0 | 2.6 | 0.00 | 0.19 | 0.00 | 66 | 975.3 |
| 20260510180808 | 67 | 311 | 0.0 | 0.9 | 0.00 | 0.19 | 0.00 | 66 | 975.1 |
| 20260510180316 | 67 | 206 | 0.0 | 0.9 | 0.00 | 0.19 | 0.00 | 69 | 975.1 |
| 20260510175757 | 67 | 244 | 0.0 | 0.0 | 0.00 | 0.20 | 0.00 | 69 | 975.1 |
| 20260510174745 | 67 | 86 | 0.0 | 0.0 | 0.00 | 0.20 | 0.00 | 66 | 975.1 |
| 20260510174238 | 67 | 283 | 0.0 | 0.0 | 0.00 | 0.21 | 0.00 | 68 | 975.0 |
| 20260510173733 | 67 | 78 | 0.0 | 0.9 | 0.00 | 0.21 | 0.00 | 67 | 974.8 |
| 20260510173227 | 67 | 281 | 0.0 | 0.9 | 0.00 | 0.22 | 0.00 | 69 | 974.9 |
| 20260510172721 | 67 | 254 | 0.0 | 0.9 | 0.00 | 0.22 | 0.00 | 68 | 975.0 |
| 20260510172215 | 67 | 154 | 0.0 | 0.9 | 0.00 | 0.23 | 0.00 | 66 | 975.0 |
| 20260510171709 | 67 | 311 | 0.0 | 0.9 | 0.00 | 0.23 | 0.00 | 67 | 974.9 |
| 20260510171203 | 67 | 110 | 0.0 | 0.9 | 0.00 | 0.24 | 0.00 | 67 | 974.9 |
| 20260510170657 | 66 | 125 | 0.0 | 0.9 | 0.00 | 0.24 | 0.00 | 69 | 974.8 |
| 20260510170151 | 66 | 297 | 0.0 | 0.0 | 0.00 | 0.24 | 0.00 | 67 | 974.8 |
| 20260510165645 | 65 | 273 | 0.0 | 0.9 | 0.00 | 0.25 | 0.00 | 70 | 974.9 |
| 20260510165139 | 64 | 242 | 0.0 | 0.9 | 0.00 | 0.25 | 0.00 | 69 | 974.9 |
| 20260510164633 | 64 | 281 | 0.0 | 0.0 | 0.00 | 0.25 | 0.00 | 72 | 975.1 |
| 20260510164126 | 63 | 190 | 0.0 | 0.0 | 0.00 | 0.26 | 0.00 | 72 | 975.2 |
| 20260510163621 | 63 | 271 | 0.0 | 0.9 | 0.00 | 0.26 | 0.00 | 71 | 975.2 |
| 20260510163115 | 63 | 237 | 0.0 | 0.9 | 0.00 | 0.26 | 0.00 | 71 | 975.2 |
| 20260510162609 | 63 | 159 | 0.0 | 0.9 | 0.00 | 0.27 | 0.00 | 72 | 975.3 |
| 20260510162103 | 62 | 307 | 0.0 | 0.9 | 0.00 | 0.27 | 0.00 | 73 | 975.2 |
| 20260510161050 | 62 | 176 | 0.0 | 1.7 | 0.00 | 0.28 | 0.00 | 71 | 975.3 |
| 20260510160545 | 63 | 175 | 0.0 | 0.9 | 0.00 | 0.28 | 0.00 | 72 | 975.3 |
| 20260510160052 | 63 | 264 | 0.0 | 0.0 | 0.00 | 0.28 | 0.00 | 71 | 975.3 |
| 20260510155533 | 63 | 254 | 0.0 | 0.0 | 0.00 | 0.29 | 0.00 | 70 | 975.4 |
| 20260510155027 | 64 | 260 | 0.0 | 0.0 | 0.00 | 0.29 | 0.00 | 72 | 975.4 |
| 20260510154521 | 63 | 264 | 0.0 | 0.0 | 0.00 | 0.29 | 0.00 | 74 | 975.3 |
| 20260510154015 | 63 | 242 | 0.0 | 0.0 | 0.00 | 0.29 | 0.00 | 74 | 975.3 |
| 20260510153509 | 63 | 245 | 0.0 | 0.0 | 0.00 | 0.29 | 0.00 | 72 | 975.3 |
| 20260510153015 | 63 | 257 | 0.0 | 0.0 | 0.00 | 0.30 | 0.00 | 72 | 975.2 |
| 20260510151951 | 64 | 270 | 0.0 | 0.0 | 0.00 | 0.30 | 0.00 | 72 | 975.1 |
| 20260510151445 | 63 | 284 | 0.0 | 0.0 | 0.00 | 0.30 | 0.00 | 74 | 975.1 |
| 20260510150939 | 64 | 169 | 0.0 | 0.0 | 0.00 | 0.30 | 0.00 | 71 | 975.2 |
| 20260510150433 | 64 | 230 | 0.0 | 0.0 | 0.00 | 0.30 | 0.00 | 75 | 975.0 |
| 20260510145927 | 63 | 232 | 0.0 | 0.0 | 0.00 | 0.31 | 0.00 | 78 | 975.0 |
| 20260510145421 | 63 | 261 | 0.0 | 0.0 | 0.00 | 0.31 | 0.00 | 75 | 975.0 |
| 20260510144915 | 62 | 172 | 0.0 | 0.0 | 0.00 | 0.31 | 0.00 | 79 | 975.0 |
| 20260510144409 | 62 | 169 | 0.0 | 0.9 | 0.00 | 0.31 | 0.00 | 79 | 975.0 |
| 20260510143357 | 61 | 215 | 0.0 | 0.0 | 0.00 | 0.32 | 0.00 | 79 | 974.9 |
| 20260510142851 | 60 | 271 | 0.0 | 0.0 | 0.00 | 0.32 | 0.00 | 80 | 974.9 |
| 20260510142345 | 60 | 180 | 0.0 | 0.9 | 0.00 | 0.33 | 0.00 | 80 | 974.9 |
| 20260510141839 | 60 | 226 | 0.0 | 0.9 | 0.00 | 0.33 | 0.00 | 80 | 974.8 |
| 20260510141336 | 60 | 176 | 0.0 | 0.9 | 0.00 | 0.34 | 0.00 | 84 | 974.8 |
| 20260510140827 | 59 | 186 | 0.0 | 0.9 | 0.00 | 0.34 | 0.00 | 83 | 974.8 |
| 20260510140321 | 58 | 174 | 0.0 | 0.9 | 0.00 | 0.35 | 0.00 | 82 | 975.0 |
| 20260510135815 | 58 | 202 | 0.0 | 0.0 | 0.00 | 0.36 | 0.00 | 83 | 975.0 |
| 20260510134804 | 57 | 223 | 0.0 | 0.0 | 0.00 | 0.36 | 0.00 | 85 | 975.0 |
| 20260510134257 | 57 | 221 | 0.0 | 0.9 | 0.00 | 0.36 | 0.00 | 85 | 975.0 |
| 20260510133751 | 56 | 220 | 0.0 | 0.9 | 0.00 | 0.36 | 0.00 | 86 | 975.0 |
| 20260510133245 | 56 | 221 | 0.0 | 0.9 | 0.00 | 0.36 | 0.00 | 85 | 975.2 |
| 20260510132743 | 56 | 163 | 0.0 | 0.0 | 0.00 | 0.36 | 0.00 | 86 | 975.1 |
| 20260510131246 | 55 | 122 | 0.0 | 0.0 | 0.00 | 0.36 | 0.00 | 90 | 975.2 |
| 20260510130741 | 55 | 122 | 0.0 | 0.0 | 0.00 | 0.36 | 0.00 | 90 | 975.1 |
| 20260510130241 | 55 | 122 | 0.0 | 0.0 | 0.00 | 0.36 | 0.00 | 92 | 975.1 |
| 20260510125741 | 54 | 122 | 0.0 | 0.0 | 0.00 | 0.36 | 0.00 | 91 | 975.1 |
| 20260510125241 | 53 | 122 | 0.0 | 0.0 | 0.00 | 0.37 | 0.00 | 92 | 975.1 |
| 20260510124741 | 53 | 123 | 0.0 | 0.0 | 0.00 | 0.37 | 0.00 | 92 | 975.1 |
| 20260510124241 | 53 | 334 | 0.0 | 0.0 | 0.00 | 0.37 | 0.00 | 92 | 975.0 |
| 20260510123741 | 53 | 334 | 0.0 | 0.0 | 0.00 | 0.37 | 0.00 | 92 | 975.0 |
| 20260510123238 | 53 | 334 | 0.0 | 0.0 | 0.00 | 0.37 | 0.00 | 93 | 975.0 |
| 20260510122737 | 52 | 355 | 0.0 | 0.0 | 0.00 | 0.37 | 0.00 | 93 | 975.0 |
| 20260510122238 | 52 | 355 | 0.0 | 0.0 | 0.00 | 0.37 | 0.00 | 93 | 975.0 |
| 20260510121737 | 52 | 355 | 0.0 | 0.0 | 0.00 | 0.38 | 0.00 | 93 | 974.9 |
| 20260510121238 | 52 | 355 | 0.0 | 0.0 | 0.00 | 0.38 | 0.00 | 93 | 974.9 |
| 20260510120239 | 51 | 0 | 0.0 | 0.0 | 0.00 | 0.39 | 0.00 | 93 | 974.9 |
| 20260510115738 | 51 | 0 | 0.0 | 0.0 | 0.00 | 0.39 | 0.00 | 93 | 974.8 |
| 20260510114736 | 51 | 0 | 0.0 | 0.0 | 0.00 | 0.39 | 0.00 | 93 | 975.0 |
| 20260510114237 | 51 | 0 | 0.0 | 0.0 | 0.00 | 0.40 | 0.00 | 94 | 975.0 |
| 20260510113737 | 51 | 0 | 0.0 | 0.0 | 0.00 | 0.40 | 0.00 | 93 | 975.0 |
| 20260510113237 | 51 | 0 | 0.0 | 0.0 | 0.00 | 0.40 | 0.00 | 93 | 975.1 |
| 20260510112236 | 50 | 0 | 0.0 | 0.0 | 0.00 | 0.41 | 0.00 | 93 | 975.2 |
| 20260510111736 | 50 | 0 | 0.0 | 0.0 | 0.00 | 0.41 | 0.00 | 94 | 975.1 |
| 20260510111237 | 50 | 0 | 0.0 | 0.0 | 0.00 | 0.41 | 0.00 | 94 | 975.1 |
| 20260510110736 | 50 | 0 | 0.0 | 0.0 | 0.00 | 0.41 | 0.00 | 94 | 975.0 |
| 20260510110231 | 50 | 0 | 0.0 | 0.0 | 0.00 | 0.41 | 0.00 | 94 | 975.0 |
| 20260510105724 | 50 | 0 | 0.0 | 0.0 | 0.00 | 0.42 | 0.00 | 94 | 974.9 |
| 20260510105218 | 50 | 0 | 0.0 | 0.0 | 0.00 | 0.42 | 0.00 | 94 | 974.8 |
| 20260510104712 | 50 | 0 | 0.0 | 0.9 | 0.00 | 0.43 | 0.00 | 94 | 974.7 |
| 20260510104206 | 50 | 0 | 0.0 | 0.9 | 0.00 | 0.43 | 0.00 | 94 | 974.7 |
| 20260510103700 | 50 | 0 | 0.0 | 0.0 | 0.00 | 0.44 | 0.00 | 94 | 974.5 |
| 20260510103154 | 50 | 0 | 0.0 | 0.0 | 0.00 | 0.45 | 0.00 | 94 | 974.4 |
| 20260510102648 | 50 | 0 | 0.0 | 0.0 | 0.00 | 0.46 | 0.00 | 94 | 974.3 |
| 20260510102142 | 50 | 0 | 0.0 | 0.0 | 0.00 | 0.46 | 0.00 | 94 | 974.4 |
| 20260510101636 | 50 | 0 | 0.0 | 0.0 | 0.00 | 0.47 | 0.00 | 94 | 974.2 |
| 20260510101130 | 50 | 0 | 0.0 | 0.0 | 0.00 | 0.48 | 0.00 | 94 | 974.1 |
| 20260510100118 | 50 | 0 | 0.0 | 0.0 | 0.00 | 0.49 | 0.00 | 94 | 974.0 |
| 20260510095612 | 50 | 0 | 0.0 | 0.0 | 0.00 | 0.49 | 0.00 | 94 | 974.1 |
| 20260510095106 | 50 | 0 | 0.0 | 0.0 | 0.00 | 0.49 | 0.00 | 94 | 974.1 |
| 20260510094600 | 50 | 0 | 0.0 | 0.0 | 0.00 | 0.50 | 0.00 | 94 | 973.9 |
| 20260510094054 | 50 | 0 | 0.0 | 0.0 | 0.00 | 0.50 | 0.00 | 94 | 973.8 |
| 20260510093548 | 50 | 0 | 0.0 | 0.0 | 0.00 | 0.51 | 0.00 | 94 | 973.6 |
| 20260510093055 | 50 | 0 | 0.0 | 0.0 | 0.00 | 0.51 | 0.00 | 94 | 973.4 |
| 20260510092030 | 50 | 0 | 0.0 | 0.0 | 0.00 | 0.53 | 0.00 | 94 | 973.5 |
| 20260510091017 | 49 | 0 | 0.0 | 0.0 | 0.00 | 0.54 | 0.00 | 94 | 973.3 |
| 20260510090512 | 49 | 0 | 0.0 | 1.7 | 0.00 | 0.54 | 0.00 | 94 | 973.2 |
| 20260510090005 | 49 | 0 | 0.0 | 1.7 | 0.00 | 0.55 | 0.00 | 94 | 973.2 |
| 20260510085500 | 49 | 51 | 0.0 | 2.6 | 0.00 | 0.55 | 0.00 | 94 | 973.2 |
| 20260510084953 | 49 | 24 | 0.0 | 2.6 | 0.00 | 0.56 | 0.00 | 94 | 973.3 |
| 20260510084449 | 49 | 22 | 0.0 | 0.9 | 0.00 | 0.56 | 0.00 | 94 | 973.3 |
| 20260510083942 | 49 | 22 | 0.0 | 1.7 | 0.00 | 0.56 | 0.00 | 94 | 973.3 |
| 20260510083436 | 49 | 22 | 0.0 | 1.7 | 0.00 | 0.57 | 0.00 | 94 | 973.5 |
| 20260510082931 | 49 | 33 | 0.0 | 0.9 | 0.00 | 0.57 | 0.00 | 94 | 973.4 |
| 20260510082424 | 49 | 33 | 0.0 | 0.9 | 0.00 | 0.57 | 0.00 | 94 | 973.3 |
| 20260510081918 | 49 | 33 | 0.0 | 0.9 | 0.00 | 0.57 | 0.00 | 94 | 973.7 |
| 20260510081412 | 49 | 33 | 0.0 | 0.9 | 0.00 | 0.57 | 0.00 | 94 | 973.7 |
| 20260510080906 | 49 | 32 | 0.0 | 0.9 | 0.00 | 0.57 | 0.00 | 94 | 973.9 |
| 20260510080400 | 49 | 33 | 0.0 | 0.9 | 0.00 | 0.57 | 0.00 | 94 | 973.9 |
| 20260510075854 | 49 | 33 | 0.0 | 0.9 | 0.00 | 0.57 | 0.00 | 94 | 973.9 |
| 20260510075348 | 49 | 33 | 0.0 | 0.9 | 0.00 | 0.57 | 0.00 | 94 | 974.0 |
| 20260510074336 | 49 | 36 | 0.0 | 0.9 | 0.00 | 0.57 | 0.00 | 94 | 974.2 |
| 20260510073830 | 49 | 31 | 0.0 | 0.0 | 0.00 | 0.57 | 0.00 | 94 | 974.2 |
| 20260510073324 | 49 | 31 | 0.0 | 0.0 | 0.00 | 0.57 | 0.00 | 94 | 974.2 |
| 20260510072312 | 49 | 31 | 0.0 | 0.0 | 0.00 | 0.57 | 0.00 | 94 | 974.2 |
| 20260510071805 | 49 | 31 | 0.0 | 0.0 | 0.00 | 0.57 | 0.00 | 94 | 974.0 |
| 20260510071300 | 49 | 31 | 0.0 | 0.0 | 0.00 | 0.57 | 0.00 | 94 | 973.9 |
| 20260510070754 | 49 | 31 | 0.0 | 0.0 | 0.00 | 0.57 | 0.00 | 94 | 973.9 |
| 20260510070248 | 49 | 31 | 0.0 | 0.0 | 0.00 | 0.57 | 0.00 | 94 | 973.8 |
| 20260510065742 | 49 | 31 | 0.0 | 0.0 | 0.00 | 0.57 | 0.00 | 94 | 973.9 |
| 20260510065235 | 49 | 31 | 0.0 | 0.0 | 0.00 | 0.57 | 0.00 | 94 | 973.8 |
| 20260510064729 | 48 | 31 | 0.0 | 0.0 | 0.00 | 0.57 | 0.00 | 94 | 973.7 |
| 20260510064224 | 48 | 31 | 0.0 | 0.0 | 0.00 | 0.57 | 0.00 | 94 | 973.7 |
| 20260510063718 | 48 | 31 | 0.0 | 0.0 | 0.00 | 0.57 | 0.00 | 94 | 973.6 |
| 20260510063213 | 48 | 31 | 0.0 | 0.0 | 0.00 | 0.57 | 0.00 | 94 | 973.6 |
| 20260510062706 | 48 | 31 | 0.0 | 0.0 | 0.00 | 0.57 | 0.00 | 94 | 973.6 |
| 20260510062200 | 48 | 31 | 0.0 | 0.0 | 0.00 | 0.57 | 0.00 | 94 | 973.6 |
| 20260510061654 | 48 | 31 | 0.0 | 0.0 | 0.00 | 0.57 | 0.00 | 94 | 973.5 |
| 20260510060642 | 48 | 31 | 0.0 | 0.0 | 0.00 | 0.57 | 0.00 | 94 | 973.6 |
| 20260510060135 | 48 | 31 | 0.0 | 0.0 | 0.00 | 0.57 | 0.00 | 94 | 973.7 |
| 20260510055630 | 48 | 31 | 0.0 | 0.0 | 0.00 | 0.57 | 0.00 | 94 | 973.7 |
| 20260510055124 | 48 | 31 | 0.0 | 0.0 | 0.00 | 0.57 | 0.00 | 94 | 973.7 |
| 20260510054618 | 48 | 31 | 0.0 | 0.0 | 0.00 | 0.57 | 0.00 | 94 | 973.8 |
| 20260510054118 | 48 | 31 | 0.0 | 0.0 | 0.00 | 0.57 | 0.00 | 94 | 973.9 |
| 20260510053616 | 48 | 31 | 0.0 | 0.0 | 0.00 | 0.57 | 0.00 | 94 | 973.9 |
| 20260510053114 | 48 | 31 | 0.0 | 0.0 | 0.00 | 0.57 | 0.00 | 94 | 974.0 |
| 20260510052612 | 48 | 31 | 0.0 | 0.0 | 0.00 | 0.57 | 0.00 | 94 | 973.9 |
| 20260510052110 | 48 | 31 | 0.0 | 0.0 | 0.00 | 0.57 | 0.00 | 94 | 973.8 |
| 20260510051610 | 48 | 31 | 0.0 | 0.0 | 0.00 | 0.57 | 0.00 | 94 | 973.9 |
| 20260510051110 | 48 | 31 | 0.0 | 0.0 | 0.00 | 0.57 | 0.00 | 94 | 973.8 |
| 20260510050608 | 48 | 31 | 0.0 | 0.0 | 0.00 | 0.57 | 0.00 | 94 | 973.7 |
| 20260510050112 | 48 | 31 | 0.0 | 0.0 | 0.00 | 0.57 | 0.00 | 94 | 973.8 |
| 20260510045606 | 48 | 31 | 0.0 | 0.0 | 0.00 | 0.57 | 0.00 | 94 | 973.8 |
| 20260510045106 | 49 | 31 | 0.0 | 0.0 | 0.00 | 0.57 | 0.00 | 94 | 973.7 |
| 20260510044604 | 49 | 31 | 0.0 | 0.0 | 0.00 | 0.57 | 0.00 | 94 | 973.8 |
| 20260510044102 | 49 | 31 | 0.0 | 0.0 | 0.00 | 0.57 | 0.00 | 94 | 973.8 |
| 20260510043600 | 49 | 31 | 0.0 | 0.0 | 0.00 | 0.57 | 0.00 | 94 | 973.8 |
| 20260510043058 | 49 | 31 | 0.0 | 0.0 | 0.00 | 0.57 | 0.00 | 94 | 973.8 |
| 20260510042556 | 49 | 31 | 0.0 | 0.0 | 0.00 | 0.57 | 0.00 | 94 | 973.9 |
| 20260510042054 | 48 | 31 | 0.0 | 0.0 | 0.00 | 0.57 | 0.00 | 94 | 973.8 |
| 20260510040552 | 48 | 31 | 0.0 | 0.0 | 0.00 | 0.57 | 0.00 | 94 | 973.8 |
| 20260510040059 | 48 | 31 | 0.0 | 0.0 | 0.00 | 0.57 | 0.00 | 94 | 973.9 |
| 20260510035547 | 48 | 31 | 0.0 | 0.0 | 0.00 | 0.57 | 0.57 | 94 | 973.9 |
| 20260510035041 | 48 | 31 | 0.0 | 0.0 | 0.00 | 0.57 | 0.57 | 94 | 973.8 |
| 20260510034535 | 49 | 31 | 0.0 | 0.0 | 0.00 | 0.57 | 0.57 | 94 | 973.6 |
| 20260510034029 | 49 | 31 | 0.0 | 0.0 | 0.00 | 0.57 | 0.57 | 94 | 973.5 |
| 20260510033017 | 49 | 31 | 0.0 | 0.0 | 0.00 | 0.57 | 0.57 | 94 | 973.6 |
| 20260510032516 | 49 | 31 | 0.0 | 0.0 | 0.00 | 0.57 | 0.57 | 94 | 973.7 |
| 20260510032000 | 49 | 31 | 0.0 | 0.0 | 0.00 | 0.57 | 0.57 | 94 | 973.9 |
| 20260510030949 | 49 | 31 | 0.0 | 0.0 | 0.00 | 0.57 | 0.57 | 94 | 973.8 |
| 20260510030443 | 49 | 31 | 0.0 | 0.0 | 0.00 | 0.57 | 0.57 | 94 | 973.8 |
| 20260510024924 | 49 | 31 | 0.0 | 0.0 | 0.00 | 0.57 | 0.57 | 94 | 973.7 |
| 20260510024417 | 49 | 31 | 0.0 | 0.0 | 0.00 | 0.57 | 0.57 | 94 | 973.7 |
| 20260510023911 | 49 | 31 | 0.0 | 0.0 | 0.00 | 0.57 | 0.57 | 94 | 973.8 |
| 20260510022859 | 49 | 31 | 0.0 | 0.0 | 0.00 | 0.57 | 0.57 | 94 | 973.9 |
| 20260510022353 | 49 | 31 | 0.0 | 0.0 | 0.00 | 0.57 | 0.57 | 93 | 973.8 |
| 20260510021847 | 49 | 31 | 0.0 | 0.0 | 0.00 | 0.57 | 0.57 | 93 | 974.0 |
| 20260510021341 | 49 | 31 | 0.0 | 0.0 | 0.00 | 0.57 | 0.57 | 93 | 973.8 |
| 20260510020835 | 49 | 31 | 0.0 | 0.0 | 0.00 | 0.57 | 0.57 | 93 | 973.9 |
| 20260510020329 | 49 | 31 | 0.0 | 0.0 | 0.00 | 0.57 | 0.57 | 93 | 973.8 |
| 20260510015823 | 49 | 31 | 0.0 | 0.0 | 0.00 | 0.57 | 0.57 | 93 | 973.8 |
| 20260510015317 | 49 | 31 | 0.0 | 0.0 | 0.00 | 0.57 | 0.57 | 93 | 973.7 |
| 20260510014811 | 49 | 31 | 0.0 | 0.0 | 0.00 | 0.57 | 0.57 | 94 | 973.7 |
| 20260510013759 | 49 | 31 | 0.0 | 0.0 | 0.00 | 0.57 | 0.57 | 94 | 973.9 |
| 20260510013253 | 49 | 31 | 0.0 | 0.0 | 0.00 | 0.57 | 0.57 | 94 | 973.9 |
| 20260510012747 | 49 | 31 | 0.0 | 0.0 | 0.00 | 0.57 | 0.57 | 93 | 973.9 |
| 20260510012241 | 49 | 31 | 0.0 | 0.0 | 0.00 | 0.57 | 0.57 | 93 | 973.9 |
| 20260510011229 | 49 | 31 | 0.0 | 0.0 | 0.00 | 0.57 | 0.57 | 93 | 974.2 |
| 20260510010723 | 49 | 31 | 0.0 | 0.0 | 0.00 | 0.57 | 0.57 | 93 | 974.1 |
| 20260510005711 | 48 | 31 | 0.0 | 0.0 | 0.00 | 0.57 | 0.57 | 93 | 973.7 |
| 20260510005205 | 48 | 31 | 0.0 | 0.0 | 0.00 | 0.57 | 0.57 | 93 | 973.7 |
| 20260510004659 | 49 | 31 | 0.0 | 0.0 | 0.00 | 0.57 | 0.57 | 93 | 973.7 |
| 20260510004154 | 49 | 31 | 0.0 | 0.0 | 0.00 | 0.57 | 0.57 | 93 | 973.6 |
| 20260510003141 | 49 | 31 | 0.0 | 0.0 | 0.00 | 0.57 | 0.57 | 93 | 973.3 |
| 20260510002634 | 49 | 31 | 0.0 | 0.0 | 0.00 | 0.57 | 0.57 | 93 | 973.1 |
| 20260510002134 | 49 | 31 | 0.0 | 0.0 | 0.00 | 0.57 | 0.57 | 93 | 973.2 |
| 20260510001133 | 49 | 31 | 0.0 | 0.0 | 0.00 | 0.57 | 0.57 | 92 | 973.1 |
| 20260510000631 | 50 | 31 | 0.0 | 0.0 | 0.00 | 0.57 | 0.57 | 92 | 972.8 |
| 20260510000131 | 50 | 31 | 0.0 | 0.0 | 0.00 | 0.57 | 0.57 | 92 | 972.8 |
| 20260509235631 | 50 | 31 | 0.0 | 0.0 | 0.00 | 0.57 | 0.57 | 92 | 972.8 |
| 20260509235131 | 50 | 31 | 0.0 | 0.0 | 0.00 | 0.57 | 0.57 | 92 | 972.7 |
| 20260509234630 | 50 | 31 | 0.0 | 0.0 | 0.00 | 0.57 | 0.57 | 92 | 972.6 |
| 20260509234129 | 51 | 31 | 0.0 | 0.0 | 0.00 | 0.57 | 0.57 | 92 | 972.6 |
| 20260509233629 | 51 | 31 | 0.0 | 0.0 | 0.00 | 0.57 | 0.57 | 92 | 972.6 |
| 20260509233129 | 51 | 31 | 0.0 | 0.0 | 0.00 | 0.57 | 0.57 | 92 | 972.5 |
| 20260509232628 | 51 | 31 | 0.0 | 0.0 | 0.00 | 0.57 | 0.57 | 92 | 972.6 |
| 20260509232125 | 51 | 31 | 0.0 | 0.0 | 0.00 | 0.57 | 0.57 | 92 | 972.7 |
| 20260509231623 | 51 | 31 | 0.0 | 0.0 | 0.00 | 0.57 | 0.57 | 92 | 972.7 |
| 20260509231123 | 51 | 273 | 0.0 | 0.0 | 0.00 | 0.57 | 0.57 | 92 | 972.7 |
| 20260509230123 | 51 | 273 | 0.0 | 0.0 | 0.00 | 0.57 | 0.57 | 92 | 972.7 |